ROMMA est une association bénévole à but non lucratif. Votre soutien est indispensable : ADHERER à ROMMA ou FAIRE un DON

Col du Lautaret - (05, Hautes-Alpes)

Massif des Ecrins (2075 m)   Longitude: 06° 24' 06" E   Latitude: 45° 02' 08" N Station partenaire n°21
 

Détail journalier du     <<     >>

Température Precipitation Humidité Vent Dir Rafale Dir. rafale Ensol.
Heure (°C) (mm) (%) (km/h) (km/h) (min)
01:00 7.80733E8S0
02:00 7.60757OSO18SO0
03:00 8.60614OSO13O0
04:00 8.60625ENE13SSE0
05:00 6.80745ESE16NE0
06:00 6.60785SO11OSO0
07:00 8.20664SO15E0
08:00 10.706315NNO47NNO30
09:00 11.20657S31NNO60
10:00 12.10628SSO15SO60
11:00 13.60639SSO18OSO50
12:00 14.40677SSO16SO60
13:00 15.20649SSO18SSO60
14:00 16.40608S19SO50
15:00 16.805511SO23SO60
16:00 17.20599OSO23SO60
17:00 17.206112SO24OSO60
18:00 16.506614OSO26O60
19:00 16.70669OSO23OSO60
20:00 15.10733SO16OSO60
21:00 12.10833SSE15NE30
22:00 10.20919SO16SO0
23:00 9.60947SO13OSO0
minuit 9.70945SO10SO0

Graphique du 22-06-2020

 

Serveur OMMA